Grayling, MI

9:54 PM EDT on June 24, 2017 (GMT -0400)
Grayling

Weather History for KGOV - March, 2013

Change the Weather History Date:

Wednesday, March 27, 2013

  Actual Average (KHTL) Record (KHTL)
Temperature  
Mean Temperature 34 °F -  
Max Temperature 38 °F 44 °F 77 °F (1945)
Min Temperature 29 °F 23 °F -7 °F (1947)
Degree Days  
Heating Degree Days 32    
Moisture  
Dew Point 26 °F    
Average Humidity 73    
Maximum Humidity 88    
Minimum Humidity 58    
Precipitation  
Precipitation 0.00 in - - ()
Sea Level Pressure  
Sea Level Pressure 30.12 in    
Wind  
Wind Speed 10 mph (WNW)    
Max Wind Speed 16 mph    
Max Gust Speed 28 mph    
Visibility 10 miles    
Events      
Averages and records for this station are not official NWS values.
T = Trace of Precipitation, MM = Missing Value Source: NWS Daily Summary

Daily Weather History Graph

Daily Weather History Graph

Search for Another Location

Airport or City:

Trip Planner

Search our weather history database for the weather conditions in past years. The results will help you decide how hot, cold, wet, or windy it might be!

Date:

Astronomy

Mar. 27, 2013 Rise Set
Actual Time 7:28 AM EDT 8:00 PM EDT
Civil Twilight 6:59 AM EDT 8:29 PM EDT
Nautical Twilight 6:24 AM EDT 9:04 PM EDT
Astronomical Twilight 5:48 AM EDT 9:40 PM EDT
Moon 8:46 PM EDT (3/27) 7:17 AM EDT (3/27)
Length of Visible Light 13h 30m
Length of Day
12h 31m
Full, 100% of the Moon is Illuminated
Mar 27
Full
Apr 3
Last Quarter
Apr 10
New
Apr 18
First Quarter
Apr 25
Full

Hourly Weather History & Observations

Time (EDT) Temp. Windchill Dew Point Humidity Pressure Visibility Wind Dir Wind Speed Gust Speed Precip Events Conditions
12:14 AM 30.4 °F 22.9 °F 22.5 °F 72% 30.10 in 10.0 mi WNW 8.1 mph - N/A   Clear
12:35 AM 30.4 °F 23.6 °F 22.8 °F 73% 30.10 in 10.0 mi West 6.9 mph - N/A   Clear
12:55 AM 31.1 °F 25.4 °F 23.7 °F 74% 30.10 in 10.0 mi West 5.8 mph - N/A   Clear
1:14 AM 31.1 °F 23.7 °F 23.9 °F 75% 30.10 in 10.0 mi WNW 8.1 mph - N/A   Mostly Cloudy
1:35 AM 30.7 °F 23.3 °F 24.4 °F 77% 30.10 in 10.0 mi WNW 8.1 mph - N/A   Overcast
1:55 AM 30.4 °F 21.0 °F 24.6 °F 79% 30.09 in 10.0 mi WNW 11.5 mph - N/A   Overcast
2:15 AM 31.1 °F 20.5 °F 25.7 °F 80% 30.09 in 10.0 mi WNW 15.0 mph - N/A   Overcast
2:35 AM 31.1 °F 23.1 °F 26.2 °F 82% 30.09 in 10.0 mi WNW 9.2 mph - N/A   Overcast
2:55 AM 31.1 °F 23.7 °F 26.4 °F 83% 30.09 in 10.0 mi WNW 8.1 mph - N/A   Overcast
3:14 AM 30.2 °F 24.3 °F 26.2 °F 85% 30.09 in 10.0 mi WNW 5.8 mph - N/A   Overcast
3:35 AM 29.8 °F 23.0 °F 26.2 °F 86% 30.09 in 10.0 mi West 6.9 mph - N/A   Mostly Cloudy
3:54 AM 31.1 °F 24.5 °F 27.5 °F 87% 30.08 in 10.0 mi WNW 6.9 mph - N/A   Overcast
4:15 AM 31.1 °F 23.1 °F 27.5 °F 87% 30.08 in 10.0 mi WNW 9.2 mph - N/A   Overcast
4:35 AM 31.1 °F 23.7 °F 27.5 °F 87% 30.09 in 10.0 mi WNW 8.1 mph - N/A   Overcast
4:54 AM 31.1 °F 23.1 °F 27.5 °F 87% 30.08 in 10.0 mi WNW 9.2 mph 16.1 mph N/A   Overcast
5:15 AM 31.1 °F 23.1 °F 27.5 °F 87% 30.09 in 10.0 mi WNW 9.2 mph - N/A   Overcast
5:35 AM 31.1 °F 23.7 °F 27.5 °F 87% 30.09 in 10.0 mi WNW 8.1 mph - N/A   Overcast
5:54 AM 31.1 °F 20.9 °F 27.5 °F 87% 30.09 in 10.0 mi WNW 13.8 mph 20.7 mph N/A   Overcast
6:15 AM 31.1 °F 21.9 °F 27.5 °F 87% 30.10 in 10.0 mi WNW 11.5 mph 16.1 mph N/A   Overcast
6:35 AM 31.1 °F 21.4 °F 27.7 °F 87% 30.10 in 10.0 mi WNW 12.7 mph 18.4 mph N/A   Overcast
6:55 AM 31.1 °F 20.9 °F 27.9 °F 88% 30.10 in 10.0 mi WNW 13.8 mph 18.4 mph N/A   Overcast
7:15 AM 31.1 °F 21.9 °F 27.9 °F 88% 30.11 in 10.0 mi NW 11.5 mph - N/A   Overcast
7:35 AM 31.1 °F 21.9 °F 27.9 °F 88% 30.11 in 10.0 mi West 11.5 mph 16.1 mph N/A   Overcast
7:55 AM 31.1 °F 24.5 °F 27.9 °F 88% 30.11 in 10.0 mi West 6.9 mph - N/A   Overcast
8:15 AM 31.1 °F 24.5 °F 27.9 °F 88% 30.11 in 10.0 mi West 6.9 mph - N/A   Overcast
8:35 AM 32.0 °F 24.2 °F 28.6 °F 87% 30.12 in 10.0 mi WNW 9.2 mph 16.1 mph N/A   Overcast
8:55 AM 33.1 °F 25.5 °F 29.7 °F 87% 30.12 in 10.0 mi West 9.2 mph - N/A   Overcast
9:15 AM 33.3 °F 24.6 °F 28.9 °F 84% 30.12 in 10.0 mi WNW 11.5 mph 16.1 mph N/A   Overcast
9:34 AM 33.3 °F 25.1 °F 27.9 °F 81% 30.12 in 10.0 mi West 10.4 mph 18.4 mph N/A   Mostly Cloudy
9:55 AM 33.3 °F 25.7 °F 26.6 °F 77% 30.12 in 10.0 mi West 9.2 mph 17.3 mph N/A   Mostly Cloudy
10:15 AM 33.3 °F 22.8 °F 25.3 °F 73% 30.12 in 10.0 mi West 16.1 mph 20.7 mph N/A   Mostly Cloudy
10:34 AM 35.6 °F 25.9 °F 27.0 °F 71% 30.12 in 10.0 mi NW 16.1 mph 23.0 mph N/A   Scattered Clouds
10:55 AM 35.8 °F 26.5 °F 25.2 °F 65% 30.12 in 10.0 mi NW 15.0 mph 21.9 mph N/A   Scattered Clouds
11:15 AM 36.0 °F 26.7 °F 24.8 °F 64% 30.12 in 10.0 mi NW 15.0 mph 23.0 mph N/A   Scattered Clouds
11:35 AM 36.0 °F 26.3 °F 24.6 °F 63% 30.12 in 10.0 mi NW 16.1 mph 23.0 mph N/A   Scattered Clouds
11:55 AM 38.3 °F 29.3 °F 25.9 °F 61% 30.13 in 10.0 mi WNW 16.1 mph 21.9 mph N/A   Scattered Clouds
12:15 PM 38.3 °F 30.1 °F 25.3 °F 60% 30.13 in 10.0 mi WNW 13.8 mph 20.7 mph N/A   Mostly Cloudy
12:35 PM 38.3 °F 30.5 °F 24.8 °F 58% 30.12 in 10.0 mi NW 12.7 mph 20.7 mph N/A   Overcast
12:55 PM 38.3 °F 30.9 °F 25.0 °F 59% 30.12 in 10.0 mi WNW 11.5 mph 18.4 mph N/A   Overcast
1:15 PM 38.3 °F 29.7 °F 24.8 °F 58% 30.12 in 10.0 mi WNW 15.0 mph 20.7 mph N/A   Overcast
1:35 PM 38.3 °F 29.7 °F 25.7 °F 61% 30.12 in 10.0 mi NW 15.0 mph 20.7 mph N/A   Overcast
1:55 PM 38.3 °F 29.7 °F 26.4 °F 62% 30.13 in 10.0 mi NW 15.0 mph 20.7 mph N/A   Overcast
2:14 PM 38.3 °F 30.5 °F 27.0 °F 64% 30.12 in 10.0 mi NW 12.7 mph 24.2 mph N/A   Mostly Cloudy
2:35 PM 38.3 °F 29.3 °F 27.5 °F 65% 30.12 in 10.0 mi WNW 16.1 mph - N/A   Overcast
2:55 PM 38.3 °F 29.3 °F 27.1 °F 64% 30.13 in 10.0 mi WNW 16.1 mph 20.7 mph N/A   Overcast
3:14 PM 38.3 °F 29.3 °F 27.1 °F 64% 30.13 in 10.0 mi NW 16.1 mph 25.3 mph N/A   Mostly Cloudy
3:35 PM 38.3 °F 29.7 °F 27.0 °F 64% 30.13 in 10.0 mi WNW 15.0 mph 27.6 mph N/A   Mostly Cloudy
3:55 PM 38.3 °F 31.4 °F 26.6 °F 63% 30.12 in 10.0 mi NW 10.4 mph 23.0 mph N/A   Mostly Cloudy
4:14 PM 38.3 °F 29.7 °F 26.4 °F 62% 30.13 in 10.0 mi WNW 15.0 mph 23.0 mph N/A   Overcast
4:35 PM 38.3 °F 29.3 °F 26.6 °F 63% 30.13 in 10.0 mi WNW 16.1 mph 20.7 mph N/A   Overcast
4:55 PM 38.3 °F 30.5 °F 26.6 °F 63% 30.13 in 10.0 mi NW 12.7 mph 20.7 mph N/A   Overcast
5:14 PM 38.3 °F 29.3 °F 26.6 °F 63% 30.14 in 10.0 mi NW 16.1 mph 19.6 mph N/A   Mostly Cloudy
5:35 PM 38.3 °F 29.3 °F 25.3 °F 60% 30.13 in 10.0 mi NW 16.1 mph 21.9 mph N/A   Mostly Cloudy
5:55 PM 38.3 °F 29.7 °F 26.4 °F 62% 30.14 in 10.0 mi WNW 15.0 mph 18.4 mph N/A   Overcast
6:15 PM 38.3 °F 30.9 °F 25.7 °F 61% 30.14 in 10.0 mi WNW 11.5 mph 23.0 mph N/A   Overcast
6:35 PM 38.3 °F 30.1 °F 25.7 °F 61% 30.14 in 10.0 mi West 13.8 mph 20.7 mph N/A   Overcast
6:55 PM 38.3 °F 30.5 °F 26.4 °F 62% 30.15 in 10.0 mi NW 12.7 mph 19.6 mph N/A   Overcast
7:15 PM 38.3 °F 30.5 °F 26.4 °F 62% 30.15 in 10.0 mi WNW 12.7 mph 20.7 mph N/A   Mostly Cloudy
7:35 PM 38.3 °F 30.5 °F 27.0 °F 64% 30.15 in 10.0 mi WNW 12.7 mph - N/A   Scattered Clouds
7:55 PM 36.3 °F 28.4 °F 25.7 °F 65% 30.16 in 10.0 mi NW 11.5 mph - N/A   Scattered Clouds
8:15 PM 35.8 °F 28.3 °F 25.7 °F 67% 30.15 in 10.0 mi WNW 10.4 mph - N/A   Scattered Clouds
8:35 PM 35.8 °F 28.8 °F 26.2 °F 68% 30.16 in 10.0 mi WNW 9.2 mph - N/A   Clear
8:54 PM 35.4 °F 29.7 °F 26.4 °F 70% 30.16 in 10.0 mi WNW 6.9 mph - N/A   Clear
9:15 PM 34.7 °F 28.8 °F 25.7 °F 70% 30.16 in 10.0 mi WNW 6.9 mph - N/A   Clear
9:35 PM 33.3 °F 27.1 °F 25.0 °F 72% 30.17 in 10.0 mi WNW 6.9 mph - N/A   Clear
9:54 PM 33.3 °F 26.4 °F 25.2 °F 72% 30.17 in 10.0 mi WNW 8.1 mph - N/A   Clear
10:15 PM 33.3 °F 26.4 °F 25.3 °F 73% 30.17 in 10.0 mi WNW 8.1 mph - N/A   Clear
10:34 PM 33.3 °F 26.4 °F 25.7 °F 74% 30.18 in 10.0 mi WNW 8.1 mph - N/A   Clear
10:55 PM 33.3 °F 27.1 °F 26.4 °F 76% 30.18 in 10.0 mi WNW 6.9 mph - N/A   Clear
11:15 PM 33.3 °F 25.7 °F 26.4 °F 76% 30.18 in 10.0 mi WNW 9.2 mph - N/A   Clear
11:34 PM 33.3 °F 27.1 °F 26.8 °F 77% 30.18 in 10.0 mi WNW 6.9 mph - N/A   Clear
11:55 PM 32.9 °F 26.7 °F 27.0 °F 79% 30.18 in 10.0 mi NW 6.9 mph - N/A   Scattered Clouds